TimeAEDT,TemperatureF,Dew PointF,Humidity,Sea Level PressureIn,VisibilityMPH,Wind Direction,Wind SpeedMPH,Gust SpeedMPH,PrecipitationIn,Events,Conditions,WindDirDegrees,DateUTC
12:00 AM,69,65,82,29.84,7,West,12.7,,,Rain,Light Rain Showers,260,2013-10-22 13:00:00
12:00 AM,69.8,64.4,83,29.83,6.2,West,12.7,-,N/A,Rain,Light Rain Showers,260,2013-10-22 13:00:00
12:30 AM,69.8,64.4,83,29.80,6.2,WSW,8.1,-,N/A,,Mostly Cloudy,250,2013-10-22 13:30:00
1:00 AM,71,64,71,29.86,,WNW,13.8,,,,,300,2013-10-22 14:00:00
1:00 AM,71.6,64.4,78,29.86,5.6,WNW,13.8,-,N/A,Rain,Light Rain Showers,300,2013-10-22 14:00:00
1:08 AM,69.8,64.4,83,29.86,3.1,WNW,26.5,-,N/A,Rain,Rain Showers,290,2013-10-22 14:08:00
1:17 AM,69.8,64.4,83,29.86,3.1,WNW,23.0,-,N/A,Rain-Thunderstorm,Light Thunderstorms and Rain,290,2013-10-22 14:17:00
1:30 AM,68.0,66.2,94,29.83,3.1,West,17.3,-,N/A,Rain-Thunderstorm,Heavy Thunderstorms and Rain,280,2013-10-22 14:30:00
2:00 AM,69,65,85,29.81,,NNE,10.4,,,,,20,2013-10-22 15:00:00
2:00 AM,69.8,66.2,88,29.80,5.6,NNE,10.4,-,N/A,Rain,Light Rain Showers,20,2013-10-22 15:00:00
2:30 AM,69.8,66.2,88,29.74,6.2,NNE,15.0,-,N/A,Rain,Light Rain Showers,30,2013-10-22 15:30:00
3:00 AM,70,64,75,29.72,9,NNE,9.2,,,,Overcast,30,2013-10-22 16:00:00
3:00 AM,69.8,64.4,83,29.71,6.2,NNE,9.2,-,N/A,,Mostly Cloudy,30,2013-10-22 16:00:00
3:30 AM,71.6,62.6,73,29.68,6.2,North,11.5,-,N/A,,Mostly Cloudy,10,2013-10-22 16:30:00
4:00 AM,71,62,66,29.68,,North,15.0,,,,,0,2013-10-22 17:00:00
4:00 AM,71.6,62.6,73,29.68,6.2,North,15.0,-,N/A,,Mostly Cloudy,360,2013-10-22 17:00:00
4:30 AM,71.6,62.6,73,29.68,6.2,North,13.8,-,N/A,,Mostly Cloudy,350,2013-10-22 17:30:00
5:00 AM,70,62,70,29.67,,North,12.7,,,,,0,2013-10-22 18:00:00
5:00 AM,69.8,62.6,78,29.65,6.2,North,12.7,-,N/A,,Mostly Cloudy,360,2013-10-22 18:00:00
5:30 AM,69.8,62.6,78,29.65,6.2,North,13.8,-,N/A,,Mostly Cloudy,360,2013-10-22 18:30:00
6:00 AM,72,61,59,29.67,19,North,13.8,,,,Partly Cloudy,350,2013-10-22 19:00:00
6:00 AM,71.6,60.8,69,29.65,-9999.0,North,13.8,-,N/A,,Clear,350,2013-10-22 19:00:00
6:30 AM,73.4,60.8,65,29.65,-9999.0,North,12.7,-,N/A,,Clear,350,2013-10-22 19:30:00
7:00 AM,73,61,58,29.67,,North,11.5,,,,,350,2013-10-22 20:00:00
7:00 AM,73.4,60.8,65,29.65,6.2,North,11.5,-,N/A,,Scattered Clouds,350,2013-10-22 20:00:00
7:30 AM,73.4,60.8,65,29.65,6.2,North,15.0,-,N/A,,Scattered Clouds,360,2013-10-22 20:30:00
8:00 AM,75,59,48,29.67,,North,15.0,,,,,350,2013-10-22 21:00:00
8:00 AM,75.2,59.0,57,29.65,6.2,North,15.0,-,N/A,,Scattered Clouds,350,2013-10-22 21:00:00
8:30 AM,78.8,57.2,47,29.65,6.2,North,17.3,-,N/A,,Scattered Clouds,350,2013-10-22 21:30:00
9:00 AM,81,57,33,29.67,16,NNW,17.3,,,,Haze,340,2013-10-22 22:00:00
9:00 AM,80.6,57.2,45,29.65,-9999.0,NNW,17.3,-,N/A,,Clear,340,2013-10-22 22:00:00
9:30 AM,84.2,55.4,37,29.65,-9999.0,NW,17.3,-,N/A,,Clear,310,2013-10-22 22:30:00
10:00 AM,84,56,27,29.66,,WNW,21.9,,,,,300,2013-10-22 23:00:00
10:00 AM,84.2,55.4,37,29.65,-9999.0,WNW,21.9,-,N/A,,Clear,300,2013-10-22 23:00:00
10:21 AM,86.0,55.4,35,29.65,-9999.0,WNW,21.9,33.4,N/A,,Clear,300,2013-10-22 23:21:00
10:30 AM,86.0,53.6,33,29.62,-9999.0,WNW,27.6,-,N/A,,Clear,300,2013-10-22 23:30:00
11:00 AM,87,51,19,29.64,,WNW,28.8,,,,,290,2013-10-23 00:00:00
11:00 AM,87.8,51.8,29,29.62,-9999.0,WNW,28.8,-,N/A,,Clear,290,2013-10-23 00:00:00
11:09 AM,89.6,51.8,27,29.62,-9999.0,WNW,25.3,36.8,N/A,,Clear,290,2013-10-23 00:09:00
11:30 AM,87.8,50.0,27,29.62,-9999.0,WNW,27.6,-,N/A,,Clear,300,2013-10-23 00:30:00
11:39 AM,87.8,50.0,27,29.62,-9999.0,WNW,29.9,42.6,N/A,,Clear,290,2013-10-23 00:39:00
12:00 PM,89,48,15,29.62,16,WNW,29.9,,,,Haze,290,2013-10-23 01:00:00
12:00 PM,89.6,48.2,24,29.62,-9999.0,WNW,29.9,41.4,N/A,,Clear,290,2013-10-23 01:00:00
12:30 PM,89.6,48.2,24,29.59,-9999.0,WNW,33.4,48.3,N/A,,Clear,290,2013-10-23 01:30:00
1:00 PM,90,44,12,29.60,,NW,34.5,,,,,310,2013-10-23 02:00:00
1:00 PM,89.6,44.6,21,29.59,-9999.0,NW,34.5,47.2,N/A,,Clear,310,2013-10-23 02:00:00
1:30 PM,89.6,42.8,20,29.59,-9999.0,NW,34.5,-,N/A,,Clear,310,2013-10-23 02:30:00
1:47 PM,91.4,39.2,16,29.56,-9999.0,WNW,32.2,43.7,N/A,,Clear,290,2013-10-23 02:47:00
2:00 PM,91,40,9,29.59,,WNW,31.1,,,,,290,2013-10-23 03:00:00
2:00 PM,91.4,39.2,16,29.59,-9999.0,WNW,31.1,-,N/A,,Clear,290,2013-10-23 03:00:00
2:05 PM,89.6,37.4,16,29.56,-9999.0,WNW,33.4,46.0,N/A,,Clear,290,2013-10-23 03:05:00
2:30 PM,91.4,30.2,11,29.59,-9999.0,WNW,29.9,42.6,N/A,,Clear,290,2013-10-23 03:30:00
3:00 PM,91,29,5,29.60,16,WNW,25.3,,,,Smoke,290,2013-10-23 04:00:00
3:00 PM,91.4,28.4,10,29.59,-9999.0,WNW,25.3,36.8,N/A,,Clear,290,2013-10-23 04:00:00
3:30 PM,91.4,24.8,9,29.59,-9999.0,West,23.0,-,N/A,,Clear,270,2013-10-23 04:30:00
3:43 PM,91.4,19.4,7,29.59,-9999.0,West,26.5,38.0,N/A,,Clear,270,2013-10-23 04:43:00
4:00 PM,91,22,4,29.62,,WNW,21.9,,,,,290,2013-10-23 05:00:00
4:00 PM,91.4,21.2,8,29.62,-9999.0,WNW,21.9,-,N/A,,Clear,290,2013-10-23 05:00:00
4:30 PM,91.4,23.0,8,29.62,-9999.0,West,19.6,-,N/A,,Clear,280,2013-10-23 05:30:00
4:46 PM,89.6,23.0,9,29.62,-9999.0,West,19.6,33.4,N/A,,Clear,280,2013-10-23 05:46:00
5:00 PM,89,20,4,29.65,,WNW,23.0,,,,,300,2013-10-23 06:00:00
5:00 PM,89.6,19.4,8,29.62,-9999.0,WNW,23.0,-,N/A,,Clear,300,2013-10-23 06:00:00
5:32 PM,87.8,23.0,9,29.65,-9999.0,WNW,20.7,32.2,N/A,,Clear,290,2013-10-23 06:32:00
6:00 PM,87,30,6,29.67,16,West,19.6,,,,Smoke,280,2013-10-23 07:00:00
6:00 PM,87.8,30.2,13,29.65,-9999.0,West,19.6,-,N/A,,Clear,280,2013-10-23 07:00:00
6:30 PM,84.2,30.2,14,29.68,-9999.0,WNW,19.6,-,N/A,,Clear,290,2013-10-23 07:30:00
7:00 PM,83,33,9,29.71,,WNW,18.4,,,,,290,2013-10-23 08:00:00
7:00 PM,82.4,33.8,17,29.71,-9999.0,WNW,18.4,-,N/A,,Clear,290,2013-10-23 08:00:00
7:30 PM,80.6,37.4,21,29.71,-9999.0,WNW,16.1,-,N/A,,Clear,290,2013-10-23 08:30:00
8:00 PM,79,39,14,29.75,,West,16.1,,,,,280,2013-10-23 09:00:00
8:00 PM,78.8,39.2,24,29.74,-9999.0,West,16.1,-,N/A,,Clear,280,2013-10-23 09:00:00
8:30 PM,77.0,41.0,28,29.77,-9999.0,West,17.3,-,N/A,,Clear,270,2013-10-23 09:30:00
9:00 PM,76,40,17,29.80,16,West,12.7,,,,Smoke,270,2013-10-23 10:00:00
9:00 PM,77.0,41.0,28,29.80,-9999.0,West,12.7,-,N/A,,Clear,270,2013-10-23 10:00:00
9:30 PM,75.2,41.0,29,29.80,-9999.0,WSW,11.5,-,N/A,,Clear,250,2013-10-23 10:30:00
10:00 PM,74,42,20,29.83,,West,9.2,,,,,270,2013-10-23 11:00:00
10:00 PM,73.4,41.0,31,29.80,-9999.0,West,9.2,-,N/A,,Clear,270,2013-10-23 11:00:00
10:30 PM,71.6,42.8,35,29.83,-9999.0,West,8.1,-,N/A,,Clear,270,2013-10-23 11:30:00
10:48 PM,71.6,46.4,41,29.83,-9999.0,SSW,17.3,-,N/A,,Clear,210,2013-10-23 11:48:00
11:00 PM,70,48,35,29.84,,SW,17.3,,,,,220,2013-10-23 12:00:00
11:00 PM,69.8,48.2,46,29.83,-9999.0,SW,17.3,-,N/A,,Clear,220,2013-10-23 12:00:00
11:30 PM,69.8,46.4,43,29.83,-9999.0,WSW,15.0,-,N/A,,Clear,240,2013-10-23 12:30:00